This is the latest recevied weather packets stored in our database for station/object N9EA. If no packets are shown the sender has not sent any weather packets the latest 10 day(s).
| Time | Temp. | Humidity | Pressure | Rain* | Wind** | Luminosity | Snow |
|---|---|---|---|---|---|---|---|
| 1778076934 | 9.44° C | 48% | 1015.1 hPa | 0 mm | - | 163 W/m² | - |
| 1778076633 | 8.89° C | 48% | 1015.1 hPa | 0 mm | - | 232 W/m² | - |
| 1778076330 | 8.89° C | 48% | 1015.3 hPa | 0 mm | - | 178 W/m² | - |
| 1778076027 | 8.89° C | 47% | 1015.2 hPa | 0 mm | - | 165 W/m² | - |
| 1778075724 | 8.89° C | 47% | 1015.2 hPa | 0 mm | - | 169 W/m² | - |
| 1778075420 | 8.89° C | 50% | 1014.9 hPa | 0 mm | - | 194 W/m² | - |
| 1778075116 | 8.89° C | 50% | 1015.1 hPa | 0 mm | - | 188 W/m² | - |
| 1778074812 | 8.89° C | 51% | 1015.1 hPa | 0 mm | - | 204 W/m² | - |
| 1778074510 | 8.33° C | 52% | 1015.1 hPa | 0 mm | - | 171 W/m² | - |
| 1778074207 | 8.33° C | 55% | 1015.2 hPa | 0 mm | - | 147 W/m² | - |
| 1778073904 | 7.78° C | 55% | 1015.2 hPa | 0 mm | - | 138 W/m² | - |
| 1778073601 | 7.78° C | 55% | 1015.1 hPa | 0 mm | - | 152 W/m² | - |
| 1778073298 | 7.78° C | 58% | 1015.1 hPa | 0 mm | - | 142 W/m² | - |
| 1778072995 | 7.22° C | 58% | 1015.2 hPa | 0 mm | - | 115 W/m² | - |
| 1778072691 | 7.22° C | 58% | 1014.9 hPa | 0 mm | - | 101 W/m² | - |
| 1778072389 | 7.22° C | 58% | 1014.9 hPa | 0 mm | - | 100 W/m² | - |
| 1778072087 | 7.22° C | 59% | 1014.9 hPa | 0 mm | - | 109 W/m² | - |
| 1778071785 | 7.22° C | 59% | 1014.7 hPa | 0 mm | - | 122 W/m² | - |
| 1778071482 | 6.67° C | 59% | 1014.5 hPa | 0 mm | - | 103 W/m² | - |
| 1778071180 | 6.67° C | 59% | 1014.5 hPa | 0 mm | - | 89 W/m² | - |
| 1778070877 | 6.67° C | 60% | 1014.4 hPa | 0 mm | - | 90 W/m² | - |
| 1778070575 | 6.67° C | 60% | 1014.3 hPa | 0 mm | - | 84 W/m² | - |
| 1778070271 | 6.67° C | 59% | 1014.4 hPa | 0 mm | - | 82 W/m² | - |
| 1778069970 | 6.67° C | 59% | 1014.2 hPa | 0 mm | - | 76 W/m² | - |
| 1778069666 | 6.67° C | 60% | 1014 hPa | 0 mm | - | 69 W/m² | - |
* Rain latest hour (hover to see other rain measurements)
** Current wind speed in m/s (hover to see current wind gust speed)